Simultaneous Nadir Overpasses (SNOs) Predictions

Prediction of SNOs between LANDSAT-8 and METOP-B Satellite Orbit:

Table of predicted SNOs for the next 14.0 days since TLE Epoch: 10/20/2018
Index Date (LANDSAT-8) Time (LANDSAT-8) Lat,Lon (LANDSAT-8) SZA (LANDSAT-8 ) Date (METOP-B) Time (METOP-B) Lat,Lon (METOP-B) SZA (METOP-B ) Distance(km) Time Diff (sec)
1 10/21/2018 13:48:14 81.18, 13.76 94.45 10/21/2018 13:47:48 81.18, 13.61 94.42 2.67 26
2 10/21/2018 14:37:40 -81.20,-178.26 85.50 10/21/2018 14:38:27 -81.20,-178.26 85.48 0.41 47
3 10/24/2018 09:22:30 81.18, 80.19 95.44 10/24/2018 09:22:09 81.18, 80.25 95.44 0.94 21
4 10/24/2018 10:11:56 -81.20,-111.81 84.50 10/24/2018 10:12:48 -81.20,-111.64 84.46 2.97 52
5 10/27/2018 04:56:45 81.18, 146.59 96.40 10/27/2018 04:56:30 81.18, 146.49 96.38 1.73 15
6 10/27/2018 05:46:11 -81.20, -45.40 83.54 10/27/2018 05:47:09 -81.20, -45.41 83.51 0.24 58
7 10/30/2018 00:31:01 81.17,-147.06 97.33 10/30/2018 00:30:51 81.18,-146.91 97.35 2.69 10
8 10/30/2018 01:20:27 -81.20, 20.97 82.61 10/30/2018 01:21:31 -81.19, 20.81 82.60 2.88 64
9 11/01/2018 20:05:16 81.19, -80.37 98.27 11/01/2018 20:05:12 81.19, -80.32 98.28 0.73 4




NCC Satellite Simultaneous Nadir Overpasses (SNOs) Prediction Service
